[[{"header":{"parameterUnit":"m.s-1","parameterCategory":1,"la1":30.2991,"la2":30.254,"lo1":-89.0895,"lo2":-89.0444,"dy":0.0017,"dx":0.0017,"nx":28,"ny":28,"refTime":"2024-05-19T09:00:00:Z","depth":0,"parameterNumber":2,"parameterNumberName":"U-component_of_WINDS"},"data":[0,0,0,0,0,0,0,0,0,0,0,0,0,0,0,0,0,0,0,0,0,0,0,0,0,0,0,0,0,0,0,0,0,0,0,0,0,0,0,0,0,0,0,0,0,0,0,0,0,0,0,0,0,0,0,0,0,0,-0.2324,-0.2323,0,-0.2263,-0.2262,-0.2261,-0.2228,-0.2228,-0.2227,-0.2227,-0.2165,-0.2164,-0.2162,0,0,0,0,0,0,0,0,0,0,0,0,0,-0.2414,-0.2413,-0.2324,-0.2323,-0.2323,-0.2263,-0.2262,-0.2261,-0.2228,-0.2228,-0.2227,-0.2227,-0.2166,-0.2164,-0.2162,0,0,0,0,0,0,0,0,0,0,0,0,0,-0.2366,-0.2412,-0.2324,-0.2299,-0.2296,-0.2263,-0.2262,-0.2261,-0.2228,-0.2228,-0.2227,-0.2227,-0.2166,-0.2164,-0.2162,-0.215,0,0,-0.2155,-0.2154,0,0,0,0,0,0,0,0,-0.2369,-0.2363,-0.2303,-0.23,-0.2297,-0.2253,-0.2271,-0.2224,-0.2228,-0.2254,-0.2227,-0.2227,-0.2195,-0.219,-0.2179,-0.2147,-0.2145,-0.2155,-0.2153,-0.2152,-0.2151,0,0,0,0,0,0,0,-0.2372,-0.2365,-0.23,-0.2302,-0.2299,-0.2291,-0.2284,-0.2262,-0.2226,-0.2251,-0.2249,-0.2242,-0.2193,-0.2181,-0.2177,-0.2144,-0.2155,-0.2152,-0.2151,-0.215,-0.2101,-0.2101,0,0,0,0,0,0,-0.238,-0.2368,-0.2302,-0.2298,-0.2333,-0.2289,-0.2282,-0.2267,-0.2226,-0.2219,-0.2242,-0.2241,-0.2185,-0.218,-0.2175,-0.2159,-0.2152,-0.215,-0.2149,-0.2101,-0.2101,-0.2101,0,0,0,0,0,0,-0.2382,-0.2374,-0.2304,-0.2333,-0.2323,-0.2288,-0.2272,-0.2266,-0.2254,-0.2219,-0.2212,-0.2236,-0.2185,-0.2178,-0.2157,-0.2156,-0.2149,-0.2147,-0.21,-0.2101,-0.2101,-0.2127,0,0,0,0,0,0,-0.2384,-0.2375,-0.237,-0.2333,-0.2322,-0.2287,-0.2272,-0.2265,-0.225,-0.2247,-0.2212,-0.2206,-0.2184,-0.216,-0.2154,-0.2153,-0.2145,-0.21,-0.2101,-0.2101,-0.2126,-0.2128,-0.2129,0,0,0,0,0,-0.2388,-0.2379,-0.237,-0.2362,-0.2314,-0.2287,-0.2281,-0.2256,-0.225,-0.2245,-0.2222,-0.2207,-0.2157,-0.2158,-0.2151,-0.2149,-0.21,-0.21,-0.2101,-0.2125,-0.2127,-0.2129,0,0,0,0,0,0,-0.2417,-0.2374,-0.2363,-0.2342,-0.2318,-0.2281,-0.2274,-0.2259,-0.2237,-0.2235,-0.2205,-0.2198,-0.2179,-0.2162,-0.2164,-0.2136,-0.2127,-0.2126,-0.2148,-0.215,-0.2152,-0.2156,-0.2143,0,0,0,0,0,-0.2422,-0.2402,-0.2366,-0.2351,-0.234,-0.2309,-0.2296,-0.2279,-0.2253,-0.2243,-0.2219,-0.2196,-0.2175,-0.2161,-0.214,-0.2123,-0.2115,-0.2118,-0.212,-0.2122,-0.2121,-0.2112,-0.2113,-0.2101,-0.2101,-0.2101,0,0,-0.243,-0.2404,-0.2394,-0.2356,-0.2336,-0.2318,-0.2301,-0.2282,-0.2268,-0.2241,-0.2219,-0.2201,-0.2172,-0.2153,-0.2144,-0.2138,-0.2123,-0.2122,-0.2124,-0.2122,-0.2112,-0.2113,-0.2114,-0.2102,-0.2102,-0.2102,0,0,-0.2435,-0.2414,-0.2399,-0.2379,-0.2349,-0.2329,-0.2325,-0.2291,-0.2277,-0.2255,-0.2235,-0.2218,-0.2182,-0.2163,-0.2149,-0.2149,-0.2134,-0.2143,-0.2152,-0.2143,-0.2144,-0.2145,-0.2145,-0.2146,-0.2142,-0.2142,-0.2142,0,-0.245,-0.242,-0.2394,-0.2376,-0.2361,-0.2335,-0.2321,-0.2303,-0.2268,-0.2258,-0.2252,-0.2208,-0.2187,-0.2163,-0.2164,-0.2153,-0.2148,-0.2146,-0.2146,-0.2147,-0.2147,-0.2147,-0.2147,-0.2143,-0.2143,-0.2143,-0.2143,0,-0.244,-0.242,-0.2412,-0.2378,-0.2362,-0.2346,-0.2318,-0.2305,-0.229,-0.227,-0.2249,-0.2223,-0.2196,-0.219,-0.2174,-0.2164,-0.2162,-0.2152,-0.2142,-0.215,-0.2149,-0.2149,-0.2145,-0.2145,-0.2144,-0.2144,0,0,-0.2462,-0.2414,-0.2411,-0.2396,-0.2361,-0.2345,-0.2329,-0.2303,-0.2293,-0.2269,-0.2255,-0.2226,-0.2217,-0.2201,-0.2183,-0.2176,-0.2178,-0.2166,-0.2165,-0.217,-0.2166,-0.2174,-0.2175,-0.2168,-0.2168,-0.2168,-0.2169,0,-0.2463,-0.2431,-0.2407,-0.2385,-0.2367,-0.2343,-0.2329,-0.2306,-0.2288,-0.227,-0.225,-0.223,-0.2219,-0.2209,-0.2201,-0.2179,-0.2177,-0.2179,-0.2155,-0.2155,-0.2163,-0.2174,-0.2182,-0.2184,-0.2168,-0.2168,-0.2168,0,-0.2459,-0.2436,-0.2412,-0.238,-0.2371,-0.2359,-0.2334,-0.2317,-0.2291,-0.2279,-0.2261,-0.2243,-0.2226,-0.2218,-0.2194,-0.2196,-0.2185,-0.2174,-0.2173,-0.217,-0.2162,-0.2172,-0.2184,-0.2185,-0.2168,-0.2168,-0.2168,0,-0.2478,-0.2441,-0.2422,-0.241,-0.2372,-0.2364,-0.2347,-0.2322,-0.2308,-0.2286,-0.2277,-0.2253,-0.2241,-0.2223,-0.22,-0.2197,-0.2179,-0.2169,-0.2168,-0.2169,-0.2165,-0.2166,-0.2177,-0.2158,-0.2158,-0.2158,-0.2158,0,-0.2481,-0.2468,-0.243,-0.2419,-0.2403,-0.2377,-0.2362,-0.2344,-0.2321,-0.2307,-0.2285,-0.2271,-0.2241,-0.2225,-0.2206,-0.219,-0.2184,-0.2174,-0.2169,-0.2176,-0.2177,-0.2168,-0.2168,-0.2158,-0.2158,-0.2158,-0.2158,0,-0.25,-0.2474,-0.2452,-0.2418,-0.2409,-0.2399,-0.237,-0.2358,-0.2339,-0.2321,-0.2315,-0.2285,-0.2264,-0.2239,-0.2211,-0.2199,-0.2184,-0.2177,-0.2192,-0.219,-0.219,-0.2191,-0.2196,-0.2195,-0.2177,-0.2178,-0.2178,0,-0.2503,-0.2492,-0.2457,-0.2445,-0.2429,-0.2411,-0.2397,-0.237,-0.2357,-0.2327,-0.2319,-0.2297,-0.2278,-0.2246,-0.2222,-0.2201,-0.2193,-0.2196,-0.2189,-0.2197,-0.2194,-0.2195,-0.2194,-0.2198,-0.2198,-0.2199,-0.2199,0,-0.2513,-0.2501,-0.2481,-0.2457,-0.2441,-0.2421,-0.24,-0.2392,-0.2361,-0.2347,-0.2326,-0.2311,-0.2282,-0.226,-0.2236,-0.222,-0.2205,-0.2201,-0.22,-0.2207,-0.2216,-0.2212,-0.2197,-0.2201,-0.2201,-0.2201,-0.2201,-0.22,-0.2524,-0.2514,-0.2487,-0.2466,-0.2448,-0.2429,-0.2416,-0.2396,-0.2377,-0.2351,-0.2337,-0.2316,-0.2292,-0.2258,-0.2242,-0.2226,-0.2221,-0.2219,-0.2218,-0.2218,-0.2221,-0.2219,-0.2222,-0.2222,-0.2221,-0.2221,-0.2221,0,-0.2533,-0.2515,-0.2496,-0.2467,-0.2451,-0.2438,-0.2414,-0.2402,-0.2384,-0.2362,-0.2344,-0.232,-0.2299,-0.2274,-0.2252,-0.2244,-0.2236,-0.2239,-0.2239,-0.2236,-0.2227,-0.223,-0.2245,-0.2245,-0.2245,-0.2245,-0.2245,-0.2245,-0.2536,-0.2518,-0.2503,-0.2475,-0.2458,-0.2437,-0.2424,-0.2407,-0.239,-0.2364,-0.2347,-0.233,-0.2308,-0.2284,-0.2265,-0.2258,-0.2251,-0.2256,-0.2247,-0.2239,-0.2237,-0.2235,-0.2238,-0.2254,-0.2254,-0.2258,-0.2258,-0.2258]},{"header":{"parameterUnit":"m.s-1","parameterCategory":1,"la1":30.2991,"la2":30.254,"lo1":-89.0895,"lo2":-89.0444,"dy":0.0017,"dx":0.0017,"nx":28,"ny":28,"refTime":"2024-05-19T09:00:00:Z","depth":0,"parameterNumber":3,"parameterNumberName":"V-component_of_WINDS"},"data":[0,0,0,0,0,0,0,0,0,0,0,0,0,0,0,0,0,0,0,0,0,0,0,0,0,0,0,0,0,0,0,0,0,0,0,0,0,0,0,0,0,0,0,0,0,0,0,0,0,0,0,0,0,0,0,0,0,0,2.4926,2.4926,0,2.4921,2.4921,2.4921,2.4932,2.4932,2.4933,2.4933,2.4924,2.4924,2.4923,0,0,0,0,0,0,0,0,0,0,0,0,0,2.4943,2.4943,2.4926,2.4926,2.4926,2.4921,2.4921,2.4921,2.4932,2.4932,2.4933,2.4933,2.4925,2.4924,2.4923,0,0,0,0,0,0,0,0,0,0,0,0,0,2.4937,2.4943,2.4926,2.4931,2.4932,2.4921,2.4921,2.4921,2.4932,2.4932,2.4933,2.4933,2.4925,2.4924,2.4923,2.4907,0,0,2.4921,2.492,0,0,0,0,0,0,0,0,2.4937,2.4936,2.4931,2.4931,2.4931,2.4928,2.4924,2.4916,2.4932,2.4932,2.4933,2.4934,2.4925,2.4924,2.4922,2.4907,2.4906,2.4921,2.492,2.492,2.4919,0,0,0,0,0,0,0,2.4937,2.4936,2.4924,2.4931,2.4931,2.4933,2.4932,2.4922,2.4925,2.4932,2.4933,2.4932,2.4925,2.4923,2.4922,2.4906,2.4921,2.492,2.4919,2.4919,2.4877,2.4876,0,0,0,0,0,0,2.4938,2.4937,2.4924,2.4924,2.4936,2.4932,2.4932,2.4928,2.4925,2.4925,2.4931,2.4932,2.4924,2.4923,2.4921,2.4902,2.492,2.4919,2.4918,2.4878,2.4877,2.4876,0,0,0,0,0,0,2.4938,2.4937,2.4925,2.4931,2.4929,2.4931,2.4927,2.4928,2.4925,2.4925,2.4925,2.4929,2.4924,2.4923,2.4911,2.4902,2.4918,2.4918,2.4878,2.4877,2.4876,2.4864,0,0,0,0,0,0,2.4938,2.4937,2.4931,2.493,2.4929,2.4915,2.4927,2.4927,2.4924,2.4926,2.4922,2.4922,2.4925,2.4912,2.491,2.4901,2.4917,2.4879,2.4878,2.4877,2.4865,2.4862,2.486,0,0,0,0,0,2.4939,2.4927,2.4931,2.4929,2.4922,2.4914,2.4913,2.4917,2.4924,2.4918,2.4918,2.4923,2.4903,2.4911,2.4908,2.4899,2.488,2.4878,2.4877,2.4866,2.4863,2.486,0,0,0,0,0,0,2.4925,2.4927,2.4931,2.4919,2.4917,2.4916,2.4909,2.4914,2.4909,2.491,2.4913,2.4913,2.49,2.4898,2.4906,2.4883,2.4892,2.4891,2.4885,2.4882,2.488,2.488,2.4916,0,0,0,0,0,2.4921,2.4916,2.4917,2.4906,2.4905,2.4907,2.4904,2.4907,2.4904,2.4903,2.4902,2.4898,2.4891,2.4886,2.488,2.4865,2.4864,2.4857,2.4855,2.4853,2.4851,2.4843,2.484,2.4872,2.4872,2.4872,0,0,2.4912,2.4912,2.4908,2.4903,2.4902,2.4895,2.4906,2.4898,2.4893,2.4901,2.489,2.4889,2.4885,2.4872,2.4865,2.487,2.4842,2.4851,2.485,2.4849,2.4841,2.4838,2.4835,2.4871,2.4871,2.4871,0,0,2.4892,2.4892,2.4882,2.4881,2.4879,2.4881,2.4879,2.4878,2.4878,2.4867,2.4873,2.4866,2.4854,2.4851,2.4848,2.4827,2.4831,2.4825,2.4813,2.4805,2.4802,2.48,2.4792,2.4789,2.4823,2.4823,2.4823,0,2.488,2.4872,2.4877,2.4869,2.4866,2.4874,2.4865,2.4863,2.4858,2.4856,2.4861,2.4847,2.4845,2.483,2.4825,2.4822,2.4819,2.4825,2.4802,2.48,2.4798,2.4791,2.4788,2.4822,2.4823,2.4823,2.4823,0,2.4857,2.4851,2.4844,2.4841,2.4837,2.4828,2.4831,2.4827,2.483,2.4831,2.4819,2.4817,2.4811,2.4808,2.481,2.4793,2.4796,2.4802,2.4811,2.4794,2.4787,2.4784,2.4821,2.4822,2.4822,2.4822,0,0,2.4828,2.4829,2.4826,2.4824,2.4823,2.4818,2.4809,2.4804,2.48,2.4796,2.4788,2.4779,2.4784,2.478,2.4783,2.4775,2.4758,2.4782,2.4782,2.4777,2.4739,2.4735,2.4732,2.4761,2.4761,2.4761,2.4739,0,2.4808,2.4795,2.4799,2.4785,2.4779,2.4786,2.4778,2.4776,2.4777,2.4771,2.4771,2.4764,2.4772,2.4769,2.4763,2.4762,2.4751,2.4764,2.4753,2.4753,2.4754,2.4728,2.4723,2.4704,2.4737,2.4736,2.4736,0,2.4783,2.478,2.4765,2.4765,2.4763,2.4756,2.4751,2.4746,2.4743,2.4744,2.474,2.4744,2.4735,2.4744,2.4731,2.4739,2.4735,2.4734,2.4734,2.4732,2.4743,2.4726,2.4697,2.4694,2.4732,2.4732,2.4732,0,2.4763,2.4755,2.4746,2.4744,2.4744,2.4738,2.4738,2.4736,2.4732,2.4728,2.4725,2.472,2.4716,2.4711,2.4713,2.472,2.4699,2.4709,2.4698,2.4698,2.4693,2.4694,2.4664,2.4691,2.4691,2.4691,2.4691,0,2.4741,2.4731,2.4737,2.4731,2.472,2.4725,2.4714,2.4714,2.4712,2.4705,2.4711,2.4705,2.4708,2.4701,2.4702,2.4691,2.4689,2.4689,2.4689,2.4688,2.4688,2.4685,2.4686,2.4691,2.4691,2.4691,2.4691,0,2.4717,2.472,2.471,2.471,2.471,2.4702,2.4702,2.4696,2.4697,2.4689,2.4687,2.4688,2.4681,2.4682,2.4673,2.4674,2.466,2.4662,2.4661,2.4661,2.4651,2.4652,2.4618,2.4613,2.4644,2.4644,2.4644,0,2.4702,2.4695,2.4695,2.4691,2.4691,2.4685,2.4681,2.4686,2.4682,2.4678,2.4672,2.4666,2.466,2.4648,2.4647,2.4641,2.4642,2.4631,2.4641,2.464,2.4642,2.4642,2.4641,2.4629,2.4628,2.4628,2.4628,0,2.4675,2.4677,2.4673,2.4669,2.4665,2.4662,2.4659,2.4655,2.4659,2.4654,2.4648,2.4644,2.4635,2.4628,2.4622,2.462,2.4624,2.4625,2.4622,2.4621,2.462,2.462,2.4655,2.4625,2.4626,2.4626,2.4626,2.4626,2.4655,2.4649,2.4648,2.4643,2.4642,2.4639,2.4633,2.4634,2.4629,2.4623,2.4625,2.4617,2.4614,2.4607,2.4604,2.4597,2.4601,2.4597,2.4596,2.4595,2.4594,2.4622,2.4596,2.4596,2.4596,2.4596,2.4596,0,2.4628,2.4628,2.4623,2.462,2.4615,2.4621,2.4618,2.4614,2.4607,2.4604,2.46,2.4591,2.4584,2.4583,2.4577,2.4571,2.4573,2.4569,2.4569,2.4569,2.459,2.4593,2.4568,2.4568,2.4568,2.4568,2.4568,2.4568,2.4614,2.4604,2.4606,2.4596,2.4595,2.4588,2.4586,2.4583,2.4581,2.4572,2.4567,2.4567,2.4565,2.4558,2.4552,2.4551,2.4548,2.4544,2.4544,2.4565,2.4567,2.457,2.4573,2.4543,2.4543,2.4523,2.4523,2.4523]}]]